Simultaneous Nadir Overpasses (SNOs) Predictions

Prediction of SNOs over PacNW region [( 10.00, 139.50) to ( 22.70, 165.60)] between AQUA and NPP Satellites:

Table of predicted SNOs over PacNW region for the next 30.0 days since TLE Epoch: 8/30/2019
Index Date (AQUA) Time (AQUA) AQUA Lat,Lon Date (NPP) Time (NPP) NPP Lat,Lon Distance(km) Time Diff (sec)
1 09/03/2019 15:09:43 22.62, 159.86 09/03/2019 15:11:26 23.24, 157.23 277.42 103
2 09/06/2019 03:31:34 22.69, 147.53 09/06/2019 03:28:04 23.93, 145.42 255.96 210
3 09/11/2019 15:59:08 22.62, 147.50 09/11/2019 16:02:10 23.28, 144.56 309.33 182
4 09/19/2019 15:09:39 22.63, 159.87 09/19/2019 15:11:26 23.20, 157.24 276.34 107
5 09/22/2019 03:31:29 22.65, 147.55 09/22/2019 03:28:00 23.77, 145.48 245.29 209




NCC Satellite Simultaneous Nadir Overpasses (SNOs) Prediction Service
